TimeCDT,TemperatureF,Dew PointF,Humidity,Sea Level PressureIn,VisibilityMPH,Wind Direction,Wind SpeedMPH,Gust SpeedMPH,PrecipitationIn,Events,Conditions,WindDirDegrees,DateUTC
12:15 AM,39.2,30.2,70,29.97,10.0,WNW,13.8,-,N/A,,Overcast,300,2013-10-18 05:15:00
12:35 AM,39.2,30.2,70,29.97,10.0,WNW,11.5,-,N/A,,Overcast,290,2013-10-18 05:35:00
12:55 AM,39.2,30.2,70,29.97,10.0,WNW,11.5,-,N/A,,Overcast,300,2013-10-18 05:55:00
1:15 AM,39.2,30.2,70,29.97,10.0,WNW,12.7,-,N/A,,Overcast,300,2013-10-18 06:15:00
1:35 AM,39.2,28.4,65,29.97,10.0,WNW,11.5,-,N/A,,Overcast,300,2013-10-18 06:35:00
1:55 AM,39.2,28.4,65,29.97,10.0,WNW,11.5,-,N/A,,Overcast,290,2013-10-18 06:55:00
2:15 AM,39.2,28.4,65,29.97,10.0,WNW,11.5,-,N/A,,Mostly Cloudy,300,2013-10-18 07:15:00
2:35 AM,37.4,28.4,70,29.97,10.0,WNW,11.5,-,N/A,,Partly Cloudy,290,2013-10-18 07:35:00
2:55 AM,37.4,28.4,70,29.98,10.0,WNW,10.4,-,N/A,,Scattered Clouds,290,2013-10-18 07:55:00
3:15 AM,35.6,28.4,75,29.98,10.0,WNW,10.4,-,N/A,,Mostly Cloudy,290,2013-10-18 08:15:00
3:35 AM,35.6,28.4,75,29.97,10.0,WNW,12.7,-,N/A,,Clear,300,2013-10-18 08:35:00
3:55 AM,35.6,26.6,70,29.98,10.0,WNW,10.4,-,N/A,,Clear,290,2013-10-18 08:55:00
4:15 AM,35.6,28.4,75,29.99,10.0,West,12.7,-,N/A,,Clear,280,2013-10-18 09:15:00
4:35 AM,35.6,26.6,70,29.99,10.0,West,10.4,-,N/A,,Clear,280,2013-10-18 09:35:00
4:55 AM,33.8,26.6,75,30.00,10.0,West,9.2,-,N/A,,Clear,280,2013-10-18 09:55:00
5:15 AM,33.8,26.6,75,30.00,10.0,West,11.5,-,N/A,,Clear,280,2013-10-18 10:15:00
5:35 AM,33.8,24.8,70,30.01,10.0,West,9.2,-,N/A,,Clear,280,2013-10-18 10:35:00
5:55 AM,33.8,26.6,75,30.01,10.0,WNW,10.4,-,N/A,,Clear,290,2013-10-18 10:55:00
6:15 AM,33.8,24.8,70,30.01,10.0,WNW,10.4,-,N/A,,Clear,290,2013-10-18 11:15:00
6:35 AM,33.8,24.8,70,30.01,10.0,WNW,10.4,-,N/A,,Clear,290,2013-10-18 11:35:00
6:55 AM,33.8,24.8,70,30.01,10.0,West,8.1,-,N/A,,Clear,280,2013-10-18 11:55:00
7:15 AM,33.8,24.8,70,30.01,10.0,West,8.1,-,N/A,,Clear,280,2013-10-18 12:15:00
7:35 AM,33.8,24.8,70,30.01,10.0,West,6.9,-,N/A,,Clear,280,2013-10-18 12:35:00
7:55 AM,33.8,24.8,70,30.01,10.0,West,6.9,-,N/A,,Clear,270,2013-10-18 12:55:00
8:15 AM,33.8,24.8,70,30.02,10.0,West,6.9,-,N/A,,Clear,270,2013-10-18 13:15:00
8:35 AM,33.8,24.8,70,30.02,10.0,West,6.9,-,N/A,,Clear,280,2013-10-18 13:35:00
8:55 AM,35.6,26.6,70,30.02,10.0,WNW,10.4,-,N/A,,Clear,300,2013-10-18 13:55:00
9:15 AM,37.4,26.6,65,30.03,10.0,West,8.1,-,N/A,,Clear,280,2013-10-18 14:15:00
9:35 AM,39.2,28.4,65,30.04,10.0,West,9.2,-,N/A,,Clear,280,2013-10-18 14:35:00
9:55 AM,41.0,28.4,61,30.04,10.0,West,9.2,-,N/A,,Clear,280,2013-10-18 14:55:00
10:15 AM,42.8,28.4,57,30.05,10.0,West,11.5,-,N/A,,Clear,270,2013-10-18 15:15:00
10:35 AM,42.8,28.4,57,30.05,10.0,WNW,11.5,-,N/A,,Clear,290,2013-10-18 15:35:00
10:55 AM,44.6,28.4,53,30.05,10.0,WNW,12.7,-,N/A,,Clear,290,2013-10-18 15:55:00
11:15 AM,44.6,26.6,49,30.04,10.0,WNW,11.5,18.4,N/A,,Clear,290,2013-10-18 16:15:00
11:35 AM,46.4,24.8,43,30.02,10.0,WNW,13.8,18.4,N/A,,Clear,300,2013-10-18 16:35:00
11:55 AM,46.4,24.8,43,30.03,10.0,WNW,13.8,19.6,N/A,,Clear,300,2013-10-18 16:55:00
12:15 PM,48.2,24.8,40,30.02,10.0,WNW,13.8,17.3,N/A,,Clear,290,2013-10-18 17:15:00
12:35 PM,48.2,24.8,40,30.01,10.0,WNW,11.5,-,N/A,,Clear,290,2013-10-18 17:35:00
12:55 PM,48.2,24.8,40,30.00,10.0,NW,10.4,18.4,N/A,,Partly Cloudy,310,2013-10-18 17:55:00
1:15 PM,48.2,24.8,40,29.99,10.0,WNW,15.0,18.4,N/A,,Partly Cloudy,290,2013-10-18 18:15:00
1:35 PM,48.2,23.0,37,29.99,10.0,WNW,10.4,18.4,N/A,,Partly Cloudy,290,2013-10-18 18:35:00
1:55 PM,48.2,23.0,37,29.99,10.0,WNW,13.8,18.4,N/A,,Partly Cloudy,290,2013-10-18 18:55:00
2:15 PM,48.2,23.0,37,29.99,10.0,NW,6.9,-,N/A,,Scattered Clouds,320,2013-10-18 19:15:00
2:35 PM,48.2,21.2,34,29.98,10.0,West,5.8,-,N/A,,Mostly Cloudy,280,2013-10-18 19:35:00
2:55 PM,48.2,23.0,37,29.98,10.0,WNW,9.2,-,N/A,,Mostly Cloudy,290,2013-10-18 19:55:00
3:15 PM,48.2,23.0,37,29.97,10.0,West,10.4,-,N/A,,Mostly Cloudy,270,2013-10-18 20:15:00
3:35 PM,48.2,23.0,37,29.97,10.0,WNW,11.5,-,N/A,,Mostly Cloudy,290,2013-10-18 20:35:00
3:55 PM,48.2,24.8,40,29.96,10.0,West,9.2,-,N/A,,Overcast,260,2013-10-18 20:55:00
4:15 PM,48.2,23.0,37,29.96,10.0,WNW,12.7,-,N/A,,Mostly Cloudy,290,2013-10-18 21:15:00
4:35 PM,48.2,23.0,37,29.95,10.0,West,12.7,-,N/A,,Mostly Cloudy,270,2013-10-18 21:35:00
4:55 PM,48.2,23.0,37,29.95,10.0,WNW,12.7,-,N/A,,Scattered Clouds,290,2013-10-18 21:55:00
5:15 PM,48.2,23.0,37,29.94,10.0,WNW,13.8,17.3,N/A,,Mostly Cloudy,300,2013-10-18 22:15:00
5:35 PM,48.2,23.0,37,29.94,10.0,WNW,12.7,17.3,N/A,,Mostly Cloudy,290,2013-10-18 22:35:00
5:55 PM,48.2,23.0,37,29.94,10.0,West,10.4,-,N/A,,Partly Cloudy,270,2013-10-18 22:55:00
6:15 PM,46.4,23.0,40,29.94,10.0,West,9.2,-,N/A,,Clear,270,2013-10-18 23:15:00
6:35 PM,44.6,23.0,43,29.94,10.0,WSW,6.9,-,N/A,,Mostly Cloudy,240,2013-10-18 23:35:00
6:55 PM,44.6,23.0,43,29.94,10.0,WSW,6.9,-,N/A,,Overcast,240,2013-10-18 23:55:00
7:15 PM,42.8,23.0,46,29.94,10.0,WSW,6.9,-,N/A,,Mostly Cloudy,250,2013-10-19 00:15:00
7:35 PM,42.8,28.4,57,29.95,10.0,WNW,12.7,-,N/A,,Mostly Cloudy,300,2013-10-19 00:35:00
7:55 PM,42.8,30.2,61,29.95,10.0,West,10.4,-,N/A,,Partly Cloudy,280,2013-10-19 00:55:00
8:15 PM,42.8,30.2,61,29.95,10.0,WNW,9.2,-,N/A,,Scattered Clouds,290,2013-10-19 01:15:00
8:35 PM,41.0,30.2,65,29.94,10.0,West,6.9,-,N/A,,Mostly Cloudy,270,2013-10-19 01:35:00
8:55 PM,41.0,28.4,61,29.93,10.0,WSW,8.1,-,N/A,,Overcast,240,2013-10-19 01:55:00
9:15 PM,41.0,28.4,61,29.93,10.0,WSW,6.9,-,N/A,,Overcast,250,2013-10-19 02:15:00
9:35 PM,41.0,28.4,61,29.93,10.0,WSW,8.1,-,N/A,,Overcast,250,2013-10-19 02:35:00
9:55 PM,39.2,28.4,65,29.92,10.0,WSW,8.1,-,N/A,,Mostly Cloudy,250,2013-10-19 02:55:00
10:15 PM,37.4,28.4,70,29.92,10.0,WSW,8.1,-,N/A,,Clear,250,2013-10-19 03:15:00
10:35 PM,37.4,28.4,70,29.91,10.0,WSW,6.9,-,N/A,,Clear,250,2013-10-19 03:35:00
10:55 PM,37.4,28.4,70,29.91,10.0,WSW,6.9,-,N/A,,Mostly Cloudy,250,2013-10-19 03:55:00
11:15 PM,37.4,28.4,70,29.91,10.0,WSW,5.8,-,N/A,,Overcast,250,2013-10-19 04:15:00
11:35 PM,37.4,28.4,70,29.90,10.0,WSW,6.9,-,N/A,,Overcast,250,2013-10-19 04:35:00
11:55 PM,37.4,28.4,70,29.90,10.0,WSW,8.1,-,N/A,,Overcast,240,2013-10-19 04:55:00